[[{"header":{"parameterUnit":"m.s-1","parameterCategory":1,"la1":30.2991,"la2":30.254,"lo1":-89.0895,"lo2":-89.0444,"dy":0.0017,"dx":0.0017,"nx":28,"ny":28,"refTime":"2025-01-31T09:00:00:Z","depth":0,"parameterNumber":2,"parameterNumberName":"U-component_of_WINDS"},"data":[0,0,0,0,0,0,0,0,0,0,0,0,0,0,0,0,0,0,0,0,0,0,0,0,0,0,0,0,0,0,0,0,0,0,0,0,0,0,0,0,0,0,0,0,0,0,0,0,0,0,0,0,0,0,0,0,0,0,1.1079,1.1079,0,1.1083,1.1083,1.1083,1.1057,1.1057,1.1056,1.1055,1.1059,1.106,1.1061,0,0,0,0,0,0,0,0,0,0,0,0,0,1.1051,1.1051,1.1079,1.1079,1.1079,1.1083,1.1083,1.1083,1.1058,1.1057,1.1056,1.1055,1.1059,1.106,1.1061,0,0,0,0,0,0,0,0,0,0,0,0,0,1.106,1.1052,1.1079,1.1067,1.1066,1.1083,1.1083,1.1083,1.1058,1.1057,1.1056,1.1055,1.1059,1.106,1.1061,1.109,0,0,1.1064,1.1065,0,0,0,0,0,0,0,0,1.1059,1.1061,1.1069,1.1068,1.1067,1.1068,1.1074,1.1085,1.1058,1.1061,1.1055,1.1054,1.1063,1.1064,1.1067,1.109,1.109,1.1065,1.1065,1.1066,1.1066,0,0,0,0,0,0,0,1.1059,1.106,1.108,1.1069,1.1068,1.1062,1.1062,1.1076,1.1068,1.106,1.1059,1.1059,1.1062,1.1066,1.1067,1.109,1.1065,1.1066,1.1066,1.1067,1.1138,1.1139,0,0,0,0,0,0,1.106,1.106,1.108,1.1081,1.106,1.1063,1.1063,1.1069,1.1068,1.1067,1.106,1.1058,1.1064,1.1066,1.1067,1.1101,1.1066,1.1067,1.1068,1.1137,1.1138,1.114,0,0,0,0,0,0,1.1059,1.1062,1.108,1.107,1.1072,1.1065,1.1071,1.107,1.1073,1.1068,1.1066,1.1065,1.1064,1.1065,1.1084,1.1101,1.1067,1.1068,1.1135,1.1137,1.1139,1.117,0,0,0,0,0,0,1.1058,1.1062,1.1072,1.107,1.1072,1.1097,1.1072,1.107,1.1075,1.1072,1.1072,1.1071,1.1063,1.1083,1.1086,1.1102,1.1069,1.1134,1.1136,1.1138,1.1167,1.1172,1.1177,0,0,0,0,0,1.1057,1.108,1.1073,1.1075,1.1085,1.1098,1.11,1.109,1.1077,1.1087,1.1084,1.1071,1.1099,1.1085,1.1088,1.1105,1.1133,1.1136,1.1138,1.1165,1.1171,1.1177,0,0,0,0,0,0,1.1084,1.108,1.1071,1.1094,1.1097,1.1094,1.1107,1.1097,1.1103,1.11,1.1088,1.1089,1.111,1.1109,1.1094,1.1133,1.1113,1.1117,1.1133,1.1139,1.1143,1.1143,1.107,0,0,0,0,0,1.1092,1.1103,1.1099,1.112,1.1121,1.1114,1.1119,1.1112,1.1114,1.1115,1.1113,1.1116,1.1126,1.1132,1.1141,1.1167,1.1167,1.118,1.1185,1.1189,1.1192,1.1207,1.1213,1.1148,1.1148,1.1148,0,0,1.111,1.1109,1.1116,1.1125,1.1126,1.1138,1.1115,1.1128,1.1137,1.1117,1.1135,1.1134,1.1137,1.116,1.117,1.116,1.121,1.1192,1.1196,1.1196,1.1211,1.1217,1.1222,1.115,1.115,1.115,0,0,1.1148,1.1148,1.1166,1.1168,1.117,1.1165,1.117,1.1169,1.1168,1.1186,1.1171,1.1182,1.1198,1.1201,1.1204,1.1245,1.1234,1.1249,1.1273,1.1288,1.1293,1.1298,1.1313,1.1319,1.1252,1.1252,1.1252,0,1.1169,1.1186,1.1176,1.1191,1.1195,1.1178,1.1197,1.1199,1.1204,1.1208,1.1197,1.1218,1.1218,1.1242,1.1252,1.1256,1.1261,1.1248,1.1294,1.1298,1.1302,1.1316,1.1322,1.1254,1.1253,1.1253,1.1253,0,1.1213,1.1225,1.124,1.1245,1.1252,1.1268,1.1261,1.1268,1.1261,1.1257,1.1277,1.1277,1.1286,1.1291,1.1283,1.1314,1.1308,1.1296,1.1275,1.131,1.1324,1.1329,1.1256,1.1255,1.1255,1.1254,0,0,1.1267,1.1268,1.1273,1.1276,1.1278,1.1288,1.1304,1.1313,1.132,1.1324,1.1338,1.1353,1.1342,1.1346,1.1338,1.1352,1.1385,1.1337,1.1337,1.1347,1.1421,1.143,1.1437,1.1378,1.1379,1.1379,1.1421,0,1.1305,1.1332,1.1324,1.1352,1.1364,1.1348,1.1363,1.1366,1.1364,1.1373,1.1371,1.1382,1.1366,1.1368,1.1381,1.1378,1.14,1.1375,1.1391,1.1391,1.1391,1.1444,1.1454,1.1493,1.1426,1.1427,1.1427,0,1.1352,1.1359,1.1388,1.139,1.1394,1.1407,1.1415,1.1425,1.1428,1.1426,1.1431,1.1422,1.1439,1.1419,1.1442,1.1425,1.1431,1.1431,1.1433,1.1434,1.1411,1.1447,1.1505,1.1511,1.1435,1.1435,1.1434,0,1.1389,1.1406,1.1426,1.1429,1.1431,1.144,1.1442,1.1444,1.145,1.1458,1.1462,1.1471,1.1476,1.1483,1.1477,1.1463,1.1501,1.1481,1.15,1.1501,1.1509,1.1508,1.1569,1.1512,1.1512,1.1512,1.1512,0,1.1432,1.1451,1.1443,1.1455,1.1476,1.1467,1.1488,1.1487,1.149,1.1502,1.149,1.1501,1.1492,1.1503,1.1498,1.1519,1.1521,1.152,1.1519,1.1521,1.1522,1.1525,1.1522,1.1514,1.1513,1.1513,1.1513,0,1.1477,1.1472,1.1493,1.1494,1.1494,1.151,1.151,1.1522,1.1519,1.1535,1.1539,1.1534,1.1547,1.1542,1.1555,1.1552,1.1578,1.1573,1.1577,1.1576,1.1596,1.1594,1.1661,1.167,1.1607,1.1608,1.1608,0,1.1505,1.1519,1.1522,1.1529,1.1532,1.1544,1.155,1.1542,1.155,1.1556,1.1567,1.1579,1.1588,1.1609,1.1608,1.1618,1.1613,1.1636,1.1615,1.1617,1.1614,1.1614,1.1615,1.164,1.1641,1.1641,1.1642,0,1.1555,1.1553,1.1563,1.1572,1.1581,1.1588,1.1594,1.1601,1.1593,1.1603,1.1616,1.1623,1.1637,1.1649,1.1659,1.166,1.165,1.1649,1.1654,1.1657,1.1659,1.1659,1.1589,1.1647,1.1647,1.1646,1.1646,1.1646,1.1593,1.1605,1.1609,1.1621,1.1625,1.1632,1.1643,1.1642,1.1653,1.1664,1.1659,1.1674,1.1679,1.1691,1.1694,1.1706,1.1698,1.1705,1.1707,1.1709,1.1712,1.1657,1.1708,1.1708,1.1708,1.1708,1.1708,0,1.1643,1.1645,1.1657,1.1666,1.1676,1.1666,1.1672,1.1681,1.1695,1.17,1.171,1.1725,1.1737,1.1737,1.1749,1.1759,1.1755,1.1762,1.1761,1.1762,1.1719,1.1713,1.1765,1.1765,1.1765,1.1765,1.1765,1.1765,1.167,1.1691,1.1689,1.1712,1.1714,1.1729,1.1734,1.174,1.1744,1.1763,1.1773,1.1773,1.1776,1.1788,1.1799,1.1799,1.1804,1.1813,1.1811,1.1771,1.1765,1.1759,1.1754,1.1814,1.1814,1.1853,1.1854,1.1854]},{"header":{"parameterUnit":"m.s-1","parameterCategory":1,"la1":30.2991,"la2":30.254,"lo1":-89.0895,"lo2":-89.0444,"dy":0.0017,"dx":0.0017,"nx":28,"ny":28,"refTime":"2025-01-31T09:00:00:Z","depth":0,"parameterNumber":3,"parameterNumberName":"V-component_of_WINDS"},"data":[0,0,0,0,0,0,0,0,0,0,0,0,0,0,0,0,0,0,0,0,0,0,0,0,0,0,0,0,0,0,0,0,0,0,0,0,0,0,0,0,0,0,0,0,0,0,0,0,0,0,0,0,0,0,0,0,0,0,-2.5933,-2.5934,0,-2.6042,-2.6043,-2.6044,-2.6039,-2.6037,-2.6036,-2.6034,-2.6146,-2.6151,-2.6155,0,0,0,0,0,0,0,0,0,0,0,0,0,-2.5721,-2.5725,-2.5933,-2.5934,-2.5935,-2.6042,-2.6043,-2.6045,-2.6039,-2.6037,-2.6035,-2.6034,-2.6145,-2.615,-2.6156,0,0,0,0,0,0,0,0,0,0,0,0,0,-2.582,-2.5726,-2.5932,-2.5945,-2.5948,-2.6041,-2.6043,-2.6045,-2.604,-2.6037,-2.6035,-2.6033,-2.6143,-2.615,-2.6156,-2.6244,0,0,-2.6177,-2.618,0,0,0,0,0,0,0,0,-2.5814,-2.5828,-2.5942,-2.5945,-2.5947,-2.6024,-2.601,-2.6112,-2.604,-2.6005,-2.6034,-2.6032,-2.6108,-2.6117,-2.6143,-2.625,-2.6254,-2.6177,-2.6181,-2.6184,-2.6186,0,0,0,0,0,0,0,-2.5807,-2.5823,-2.5976,-2.5944,-2.5947,-2.5946,-2.5958,-2.6029,-2.6068,-2.6008,-2.6007,-2.602,-2.6109,-2.6136,-2.6145,-2.6256,-2.6177,-2.6183,-2.6187,-2.619,-2.6443,-2.6445,0,0,0,0,0,0,-2.5797,-2.5817,-2.5972,-2.5979,-2.5874,-2.5952,-2.5965,-2.6002,-2.6067,-2.6075,-2.6022,-2.602,-2.6126,-2.6138,-2.6149,-2.6258,-2.6184,-2.619,-2.6194,-2.644,-2.6443,-2.6446,0,0,0,0,0,0,-2.5793,-2.5811,-2.5968,-2.5898,-2.5918,-2.5958,-2.6,-2.6005,-2.6033,-2.6078,-2.6085,-2.6043,-2.6125,-2.614,-2.6221,-2.6262,-2.6193,-2.6199,-2.6437,-2.6441,-2.6445,-2.6475,0,0,0,0,0,0,-2.5787,-2.581,-2.5843,-2.5899,-2.5922,-2.6038,-2.6002,-2.6009,-2.6045,-2.6042,-2.61,-2.6107,-2.6124,-2.6211,-2.6228,-2.627,-2.6205,-2.6433,-2.6439,-2.6443,-2.6471,-2.648,-2.6488,0,0,0,0,0,-2.5779,-2.5847,-2.5845,-2.5864,-2.5964,-2.604,-2.6053,-2.6071,-2.6048,-2.6082,-2.6112,-2.6105,-2.6255,-2.622,-2.6238,-2.6283,-2.6431,-2.6437,-2.6443,-2.6467,-2.6478,-2.6488,0,0,0,0,0,0,-2.5795,-2.5854,-2.5853,-2.594,-2.5985,-2.6039,-2.6082,-2.6082,-2.6134,-2.613,-2.615,-2.6163,-2.6245,-2.6272,-2.6232,-2.6372,-2.634,-2.635,-2.6352,-2.6363,-2.6371,-2.6363,-2.621,0,0,0,0,0,-2.5808,-2.5864,-2.5914,-2.5986,-2.6009,-2.6042,-2.6075,-2.6086,-2.6133,-2.6152,-2.6187,-2.6233,-2.6291,-2.6328,-2.6383,-2.6475,-2.6488,-2.6515,-2.6523,-2.653,-2.6539,-2.6591,-2.6604,-2.6466,-2.6466,-2.6466,0,0,-2.5837,-2.5876,-2.591,-2.599,-2.6026,-2.6085,-2.6058,-2.612,-2.6164,-2.6161,-2.624,-2.6268,-2.6321,-2.6408,-2.6448,-2.6433,-2.658,-2.6538,-2.6543,-2.6548,-2.6598,-2.6611,-2.6623,-2.647,-2.647,-2.6469,0,0,-2.5919,-2.5954,-2.6019,-2.6056,-2.6111,-2.6133,-2.6148,-2.6203,-2.6221,-2.6301,-2.6301,-2.6353,-2.6451,-2.649,-2.6522,-2.6621,-2.6618,-2.6638,-2.6682,-2.6733,-2.6744,-2.6754,-2.679,-2.6803,-2.6647,-2.6647,-2.6647,0,-2.5948,-2.6035,-2.6053,-2.6116,-2.6152,-2.6153,-2.6219,-2.6254,-2.6324,-2.635,-2.6332,-2.6456,-2.6492,-2.6589,-2.6613,-2.6639,-2.6658,-2.6632,-2.6741,-2.6751,-2.676,-2.6796,-2.6809,-2.6649,-2.6649,-2.6648,-2.6648,0,-2.6068,-2.6129,-2.6175,-2.6244,-2.6285,-2.6349,-2.6378,-2.6417,-2.6424,-2.6448,-2.6531,-2.6574,-2.6638,-2.6662,-2.6669,-2.6761,-2.675,-2.6736,-2.6704,-2.6775,-2.6809,-2.6822,-2.6652,-2.6651,-2.6651,-2.665,0,0,-2.6163,-2.6241,-2.6258,-2.6289,-2.6351,-2.6398,-2.6464,-2.6528,-2.6562,-2.661,-2.6667,-2.6751,-2.6739,-2.6776,-2.6787,-2.6832,-2.6909,-2.6813,-2.6814,-2.683,-2.7015,-2.7026,-2.7041,-2.6907,-2.691,-2.6912,-2.7011,0,-2.6252,-2.6368,-2.6386,-2.6489,-2.6546,-2.6548,-2.6605,-2.665,-2.6674,-2.6727,-2.6754,-2.6814,-2.6793,-2.6816,-2.686,-2.689,-2.6947,-2.6883,-2.6961,-2.6964,-2.6949,-2.7058,-2.707,-2.7161,-2.7024,-2.7026,-2.7028,0,-2.6371,-2.6424,-2.6532,-2.6587,-2.6612,-2.6663,-2.6724,-2.6774,-2.6825,-2.684,-2.6882,-2.6889,-2.6958,-2.6922,-2.7019,-2.6975,-2.7008,-2.7029,-2.7033,-2.7041,-2.7001,-2.7071,-2.719,-2.7204,-2.7049,-2.7047,-2.7045,0,-2.6431,-2.6529,-2.6606,-2.6633,-2.6699,-2.6736,-2.6765,-2.6813,-2.6851,-2.6904,-2.6929,-2.699,-2.7023,-2.7071,-2.7094,-2.7066,-2.719,-2.7156,-2.7205,-2.7205,-2.7231,-2.723,-2.7359,-2.7251,-2.7251,-2.7251,-2.725,0,-2.6529,-2.6596,-2.6634,-2.6682,-2.6757,-2.6778,-2.6852,-2.6881,-2.6924,-2.6978,-2.6984,-2.7035,-2.7062,-2.7117,-2.7136,-2.7214,-2.7229,-2.7244,-2.7248,-2.7244,-2.7242,-2.7266,-2.7261,-2.7254,-2.7253,-2.7253,-2.7252,0,-2.6608,-2.6637,-2.6722,-2.6778,-2.6794,-2.6847,-2.6895,-2.6942,-2.6967,-2.7036,-2.7053,-2.7092,-2.7158,-2.7186,-2.7266,-2.7279,-2.7369,-2.7368,-2.7352,-2.7353,-2.7402,-2.7397,-2.7552,-2.7574,-2.745,-2.7451,-2.7452,0,-2.667,-2.6721,-2.6783,-2.682,-2.685,-2.6909,-2.6948,-2.6971,-2.7012,-2.7075,-2.7115,-2.718,-2.7234,-2.7339,-2.7375,-2.7437,-2.7439,-2.7489,-2.7448,-2.7443,-2.7441,-2.7439,-2.7445,-2.7496,-2.7497,-2.7498,-2.7499,0,-2.6776,-2.6788,-2.6843,-2.6905,-2.6951,-2.7001,-2.7049,-2.7079,-2.711,-2.7155,-2.7223,-2.7264,-2.7347,-2.7413,-2.7478,-2.7509,-2.751,-2.7512,-2.7527,-2.7524,-2.7513,-2.7521,-2.7373,-2.7508,-2.7507,-2.7507,-2.7506,-2.7506,-2.6849,-2.6896,-2.6947,-2.7009,-2.7048,-2.7093,-2.7141,-2.7172,-2.7229,-2.7298,-2.7309,-2.7381,-2.7433,-2.752,-2.7553,-2.7611,-2.7599,-2.762,-2.7626,-2.7631,-2.7635,-2.7503,-2.7623,-2.7622,-2.7622,-2.7622,-2.7622,0,-2.6957,-2.699,-2.7047,-2.7115,-2.7165,-2.7161,-2.7215,-2.7257,-2.7321,-2.7368,-2.7422,-2.75,-2.7565,-2.7606,-2.7672,-2.771,-2.7712,-2.7726,-2.7724,-2.7732,-2.7641,-2.7622,-2.7724,-2.7724,-2.7723,-2.7723,-2.7723,-2.7723,-2.7019,-2.7098,-2.7116,-2.7215,-2.7248,-2.7319,-2.735,-2.7393,-2.7431,-2.7519,-2.7572,-2.7599,-2.7645,-2.7714,-2.7773,-2.7784,-2.7809,-2.7824,-2.7834,-2.7749,-2.7738,-2.7728,-2.771,-2.7828,-2.7829,-2.792,-2.7921,-2.7922]}]]